Torna al catalogo

STARLINK-36395

AttivoComunicazioniSSO
NORAD 67554·PAYLOAD·🇺🇸 United States

Lanciato Jan 22, 2026 da Vandenberg Space Force Base

Loading…

Prossimi Passaggi (prossime 24 ore)

TLE

AggiornatoSource: CelesTrak SupGP

Epoca: Sep 15, 2026, 02:58 UTC

1 67554C 26014Y   26258.12409722  .00080211  00000+0  24890-2 0  2584
2 67554  97.2848 146.4634 0001833  95.4469 289.7966 15.33409467    17

Traccia STARLINK-36395 in tempo reale con AllMySat

Download on the App Store